Weather History for Fremont, MI

Change the Weather History Date:

Thursday, July 12, 2012

  Actual Average (KMKG) Record (KMKG)
Temperature  
Mean Temperature 74 °F 71 °F  
Max Temperature 89 °F 81 °F 92 °F (1930)
Min Temperature 58 °F 62 °F 45 °F (1978)
Degree Days  
Heating Degree Days 0 0  
Month to date heating degree days 4  
Since 1 June heating degree days 70  
Since 1 July heating degree days 4  
Cooling Degree Days 8 7  
Month to date cooling degree days 75  
Year to date cooling degree days 209  
Since 1 June cooling degree days 180  
Growing Degree Days 24 (Base 50)    
Moisture  
Dew Point 51 °F    
Average Humidity 48    
Maximum Humidity 86    
Minimum Humidity 23    
Precipitation  
Precipitation 0.00 in 0.07 in 1.51 in (2014)
Month to date precipitation 0.86  
Year to date precipitation 15.68  
Snow  
Snow 0.00 in 0.00 in - ()
Month to date snowfall 0.0  
Since 1 June snowfall 0.0  
Since 1 July snowfall 0.0  
Snow Depth -    
Sea Level Pressure  
Sea Level Pressure 30.12 in    
Wind  
Wind Speed 3 mph (ESE)    
Max Wind Speed 10 mph    
Max Gust Speed -    
Visibility 10 miles    
Events      
T = Trace of Precipitation, MM = Missing Value Source: NWS Daily Summary

Daily Weather History Graph

Daily Weather History Graph

Search for Another Location

Airport:

Trip Planner

Search our weather history database for the weather conditions in past years. The results will help you decide how hot, cold, wet, or windy it might be!

Date:

Astronomy

Jul. 12, 2012 Rise Set
Actual Time 6:14 AM EDT 9:24 PM EDT
Civil Twilight 5:40 AM EDT 9:58 PM EDT
Nautical Twilight 4:55 AM EDT 10:43 PM EDT
Astronomical Twilight 4:01 AM EDT 11:36 PM EDT
Moon 1:22 AM EDT (7/12) 3:53 PM EDT (7/12)
Length of Visible Light 16h 18m
Length of Day
15h 09m
Waning Crescent, 35% of the Moon is Illuminated
Jul 12
Waning Crescent
Jul 19
New
Jul 26
First Quarter
Aug 1
Full
Aug 9
Last Quarter

Hourly Weather History & Observations

Time (EDT) Temp. Dew Point Humidity Pressure Visibility Wind Dir Wind Speed Gust Speed Precip Events Conditions
12:15 AM 64.4 °F 56.1 °F 74% 30.12 in 10.0 mi East 4.6 mph - N/A   Clear
12:36 AM 64.8 °F 55.6 °F 72% 30.12 in 10.0 mi NE 8.1 mph - N/A   Clear
12:55 AM 65.1 °F 56.1 °F 73% 30.12 in 10.0 mi SW 3.5 mph - N/A   Clear
1:16 AM 63.0 °F 54.3 °F 73% 30.12 in 10.0 mi Calm Calm - N/A   Clear
1:36 AM 61.3 °F 54.1 °F 77% 30.12 in 10.0 mi NE 3.5 mph - N/A   Clear
1:56 AM 61.0 °F 55.0 °F 81% 30.12 in 10.0 mi Calm Calm - N/A   Clear
2:16 AM 59.5 °F 54.9 °F 84% 30.12 in 10.0 mi Calm Calm - N/A   Clear
2:36 AM 59.5 °F 54.9 °F 84% 30.12 in 10.0 mi Calm Calm - N/A   Clear
2:55 AM 59.4 °F 54.9 °F 85% 30.12 in 10.0 mi Calm Calm - N/A   Clear
3:16 AM 58.6 °F 54.3 °F 86% 30.12 in 10.0 mi Calm Calm - N/A   Clear
3:35 AM 59.9 °F 55.4 °F 85% 30.12 in 10.0 mi Calm Calm - N/A   Clear
3:56 AM 63.0 °F 54.7 °F 74% 30.12 in 10.0 mi ENE 4.6 mph - N/A   Clear
4:15 AM 62.2 °F 54.7 °F 76% 30.12 in 10.0 mi East 4.6 mph - N/A   Clear
4:36 AM 61.9 °F 54.5 °F 77% 30.11 in 10.0 mi ENE 4.6 mph - N/A   Clear
4:55 AM 61.9 °F 53.8 °F 75% 30.11 in 10.0 mi East 5.8 mph - N/A   Clear
5:16 AM 61.2 °F 53.6 °F 76% 30.12 in 10.0 mi Calm Calm - N/A   Clear
5:36 AM 59.5 °F 52.9 °F 79% 30.12 in 10.0 mi East 4.6 mph - N/A   Clear
5:56 AM 60.3 °F 53.1 °F 77% 30.12 in 10.0 mi ENE 4.6 mph - N/A   Clear
6:16 AM 60.8 °F 53.1 °F 76% 30.12 in 10.0 mi ENE 5.8 mph - N/A   Clear
6:36 AM 60.8 °F 53.6 °F 77% 30.12 in 10.0 mi ENE 3.5 mph - N/A   Clear
6:56 AM 59.7 °F 53.8 °F 81% 30.14 in 10.0 mi Calm Calm - N/A   Clear
7:15 AM 60.8 °F 54.7 °F 80% 30.14 in 10.0 mi Calm Calm - N/A   Clear
7:36 AM 62.6 °F 55.9 °F 79% 30.15 in 10.0 mi ENE 3.5 mph - N/A   Clear
7:56 AM 65.5 °F 54.5 °F 68% 30.15 in 10.0 mi ENE 3.5 mph - N/A   Clear
8:15 AM 67.5 °F 54.7 °F 64% 30.15 in 10.0 mi East 4.6 mph - N/A   Clear
8:36 AM 69.1 °F 54.9 °F 60% 30.15 in 10.0 mi East 3.5 mph - N/A   Clear
8:56 AM 71.6 °F 53.1 °F 52% 30.15 in 10.0 mi ESE 5.8 mph - N/A   Mostly Cloudy
9:15 AM 72.9 °F 51.6 °F 47% 30.16 in 10.0 mi SE 4.6 mph - N/A   Mostly Cloudy
9:55 AM 76.6 °F 49.3 °F 38% 30.16 in 10.0 mi SE 5.8 mph - N/A   Scattered Clouds
10:16 AM 78.3 °F 49.5 °F 36% 30.16 in 10.0 mi South 9.2 mph - N/A   Scattered Clouds
10:36 AM 78.8 °F 48.9 °F 35% 30.16 in 10.0 mi SSE 8.1 mph - N/A   Scattered Clouds
10:55 AM 80.4 °F 49.1 °F 33% 30.16 in 10.0 mi South 9.2 mph - N/A   Scattered Clouds
11:16 AM 81.9 °F 50.7 °F 34% 30.16 in 10.0 mi SSE 6.9 mph - N/A   Mostly Cloudy
11:36 AM 82.4 °F 48.9 °F 31% 30.16 in 10.0 mi South 4.6 mph - N/A   Mostly Cloudy
11:55 AM 83.5 °F 48.0 °F 29% 30.16 in 10.0 mi ESE 3.5 mph - N/A   Scattered Clouds
12:16 PM 84.6 °F 47.8 °F 28% 30.15 in 10.0 mi SSW 8.1 mph - N/A   Scattered Clouds
12:36 PM 84.0 °F 46.0 °F 26% 30.15 in 10.0 mi Calm Calm - N/A   Clear
12:55 PM 84.7 °F 46.2 °F 26% 30.15 in 10.0 mi Calm Calm - N/A   Clear
1:16 PM 84.6 °F 46.0 °F 26% 30.14 in 10.0 mi Calm Calm - N/A   Clear
1:35 PM 86.0 °F 46.9 °F 26% 30.14 in 10.0 mi Calm Calm - N/A   Clear
1:56 PM 86.5 °F 47.1 °F 25% 30.13 in 10.0 mi WSW 4.6 mph - N/A   Mostly Cloudy
2:16 PM 83.7 °F 46.8 °F 27% 30.13 in 10.0 mi Calm Calm - N/A   Scattered Clouds
2:36 PM 86.9 °F 46.6 °F 25% 30.12 in 10.0 mi South 6.9 mph - N/A   Scattered Clouds
2:56 PM 85.5 °F 46.9 °F 26% 30.11 in 10.0 mi ENE 5.8 mph - N/A   Scattered Clouds
3:15 PM 87.1 °F 46.8 °F 25% 30.11 in 10.0 mi Calm Calm - N/A   Scattered Clouds
3:36 PM 87.8 °F 45.9 °F 23% 30.11 in 10.0 mi SSE 5.8 mph - N/A   Scattered Clouds
3:56 PM 88.2 °F 46.9 °F 24% 30.10 in 10.0 mi East 5.8 mph - N/A   Clear
4:15 PM 85.5 °F 47.1 °F 26% 30.10 in 10.0 mi South 3.5 mph - N/A   Scattered Clouds
4:36 PM 87.8 °F 46.2 °F 24% 30.10 in 10.0 mi SSW 10.4 mph - N/A   Clear
4:56 PM 88.2 °F 46.0 °F 23% 30.09 in 10.0 mi Calm Calm - N/A   Scattered Clouds
5:16 PM 87.6 °F 46.8 °F 24% 30.09 in 10.0 mi Calm Calm - N/A   Mostly Cloudy
5:36 PM 88.9 °F 46.8 °F 23% 30.08 in 10.0 mi SW 3.5 mph - N/A   Mostly Cloudy
5:55 PM 89.1 °F 48.0 °F 24% 30.08 in 10.0 mi WNW 5.8 mph - N/A   Mostly Cloudy
6:16 PM 87.4 °F 46.9 °F 24% 30.08 in 10.0 mi Calm Calm - N/A   Overcast
6:36 PM 87.6 °F 46.8 °F 24% 30.07 in 10.0 mi Calm Calm - N/A   Overcast
6:55 PM 87.3 °F 48.0 °F 26% 30.07 in 10.0 mi SSW 5.8 mph - N/A   Scattered Clouds
7:16 PM 86.9 °F 48.2 °F 26% 30.07 in 10.0 mi SSW 5.8 mph - N/A   Clear
7:35 PM 86.5 °F 47.1 °F 25% 30.08 in 10.0 mi Calm Calm - N/A   Clear
7:56 PM 86.2 °F 49.5 °F 28% 30.08 in 10.0 mi Calm Calm - N/A   Scattered Clouds
8:16 PM 84.0 °F 50.4 °F 31% 30.08 in 10.0 mi NW 3.5 mph - N/A   Mostly Cloudy
8:36 PM 82.6 °F 50.2 °F 32% 30.08 in 10.0 mi WNW 3.5 mph - N/A   Scattered Clouds
8:56 PM 79.5 °F 53.4 °F 40% 30.08 in 10.0 mi Calm Calm - N/A   Clear
9:15 PM 79.2 °F 50.9 °F 37% 30.08 in 10.0 mi Calm Calm - N/A   Clear
9:36 PM 77.5 °F 51.8 °F 41% 30.08 in 10.0 mi ENE 3.5 mph - N/A   Clear
9:55 PM 78.6 °F 50.2 °F 37% 30.08 in 10.0 mi ENE 3.5 mph - N/A   Clear
10:16 PM 76.3 °F 51.4 °F 42% 30.09 in 10.0 mi ENE 3.5 mph - N/A   Clear
10:35 PM 74.7 °F 52.0 °F 45% 30.09 in 10.0 mi Calm Calm - N/A   Clear
10:55 PM 74.3 °F 53.1 °F 47% 30.09 in 10.0 mi Calm Calm - N/A   Clear
11:16 PM 72.0 °F 53.2 °F 52% 30.09 in 10.0 mi Calm Calm - N/A   Clear
11:36 PM 72.1 °F 52.3 °F 50% 30.09 in 10.0 mi East 3.5 mph - N/A   Clear
11:56 PM 72.3 °F 51.8 °F 48% 30.09 in 10.0 mi Calm Calm - N/A   Clear